Flag for Namibia Weather past 2 weeks in Windhoek, Namibia

Now
90 °F

Hot.


Feels Like: 86 °F
Forecast: 65 / 88 °F
Wind: 9 mph from Northwest

Location: Windhoek

Current Time: Dec 19, 2014 at 4:50:52 PM

Latest Report: Dec 19, 2014 at 4:00 PM


Visibility: N/A

Pressure: 30.09 "Hg

Humidity: 13%

Dew point: 32 °F

Location of WindhoekLocation

Historic Weather in Windhoek — Graph

°F

Windhoek temperature yesterday

Maximum temperature yesterday: 90 °F (at 2:00 PM)
Minimum temperature yesterday: 55 °F (at 6:00 AM)
Average temperature yesterday: 73 °F

Past Weeks' High & Low Weather Summary

 TemperatureHumidityPressure
High90 °F (Dec 5, 12:00 PM)94% (Dec 6, 5:00 PM)30.24 "Hg (Dec 6, 5:00 PM)
Low55 °F (Dec 18, 6:00 AM)8% (Dec 18, 6:00 PM)29.98 "Hg (Dec 11, 6:00 PM)
Average73 °F37%30.12 "Hg
* Reported Dec 4 9:00 PM — Dec 19 3:00 PM, Windhoek, Weather by CustomWeather, © 2014

Note: Actual official high and low records may vary slightly from our data, if they occured in-between our weather recording intervals... More about our weather records

Advertising

Windhoek weather history for previous 24 hours

 ConditionsComfort  
Time TempWeatherWind HumidityBarometerVisibility
3:00 PM
Dec 19
90 °FScattered clouds.3 mph13%30.09 "HgN/A
2:00 PM88 °FScattered clouds.7 mph15%30.12 "HgN/A
1:00 PM86 °FPassing clouds.8 mph17%30.12 "HgN/A
12:00 PM86 °FPassing clouds.6 mph15%30.15 "HgN/A
11:00 AM82 °FPassing clouds.5 mph17%30.18 "HgN/A
10:00 AM79 °FSunny.10 mph16%30.18 "Hg10 mi
9:00 AM75 °FSunny.6 mph13%30.18 "Hg10 mi
8:00 AM68 °FScattered showers. Passing clouds.3 mph18%30.18 "HgN/A
6:00 AM64 °FMild.5 mph18%30.15 "HgN/A
5:00 AM66 °FMild.6 mph18%30.12 "HgN/A
4:00 AM68 °FMild.3 mph16%30.12 "HgN/A
3:00 AM66 °FMild.5 mph19%30.15 "HgN/A
2:00 AM66 °FMild.5 mph22%30.18 "HgN/A
1:00 AM68 °FMild.6 mph23%30.18 "HgN/A
12:00 AM68 °FMild.3 mph24%30.21 "HgN/A
11:00 PM
Dec 18
68 °FMild.5 mph23%30.21 "HgN/A
10:00 PM68 °FMild.5 mph24%30.18 "HgN/A
9:00 PM72 °FMild.9 mph22%30.18 "HgN/A
8:00 PM73 °FMild.13 mph15%30.12 "HgN/A
7:00 PM79 °FPleasantly warm.15 mph11%30.09 "HgN/A
6:00 PM86 °FPleasantly warm.10 mph8%30.07 "HgN/A
5:00 PM86 °FPleasantly warm.8 mph11%30.07 "HgN/A
4:00 PM90 °FPartly sunny.5 mph12%30.07 "HgN/A
Weather by CustomWeather, © 2014

See weather overviewHow to use our weather pages